Change the Weather History Date:

Saturday, February 1, 2014

  Actual Average Record
Temperature  
Mean Temperature 76 °F -  
Max Temperature 86 °F - - ()
Min Temperature 66 °F - - ()
Cooling Degree Days 11    
Growing Degree Days 26 (Base 50)    
Moisture  
Dew Point 70 °F    
Average Humidity 81    
Maximum Humidity 100    
Minimum Humidity 52    
Precipitation  
Precipitation 0.00 in - - ()
Sea Level Pressure  
Sea Level Pressure 29.68 in    
Wind  
Wind Speed 2 mph ()    
Max Wind Speed 12 mph    
Max Gust Speed -    
Visibility 7.2 miles    
Events      
T = Trace of Precipitation, MM = Missing Value Source: Averaged Metar Reports

Daily Weather History Graph

Daily Weather History Graph

Search for Another Location

Airport or City:

Trip Planner

Search our weather history database for the weather conditions in past years. The results will help you decide how hot, cold, wet, or windy it might be!

Date:

Astronomy

Feb. 01, 2014 Rise Set
Actual Time 5:52 AM FJT 6:46 PM FJT
Civil Twilight 5:29 AM FJT 7:09 PM FJT
Nautical Twilight 5:02 AM FJT 7:36 PM FJT
Astronomical Twilight 4:34 AM FJT 8:03 PM FJT
Moon 6:51 AM FJT (2/1) 7:39 PM FJT (2/1)
Length of Visible Light 13h 39m
Length of Day
12h 53m
New Moon, 2% of the Moon is Illuminated
Feb 1
New Moon
Feb 7
First Quarter
Feb 15
Full
Feb 23
Last Quarter
Mar 1
New

Hourly Weather History & Observations

Time (FJT) Temp. Heat Index Dew Point Humidity Pressure Visibility Wind Dir Wind Speed Gust Speed Precip Events Conditions
12:00 AM 72 °F - 70 °F 91% 29.70 in 12 mi Calm Calm - -   Partly Cloudy
12:00 AM 71.6 °F - 69.8 °F 94% 29.68 in 6.2 mi Calm Calm - N/A   Partly Cloudy
1:00 AM 69.8 °F - 68.0 °F 94% 29.68 in 6.2 mi Calm Calm - N/A   Partly Cloudy
2:00 AM 69.8 °F - 68.0 °F 94% 29.65 in 6.2 mi Calm Calm - N/A   Partly Cloudy
3:00 AM 69 °F - 68 °F 94% 29.66 in 12 mi Calm Calm - -   Partly Cloudy
3:00 AM 68.0 °F - 68.0 °F 100% 29.65 in 6.2 mi Calm Calm - N/A   Partly Cloudy
4:00 AM 68.0 °F - 68.0 °F 100% 29.65 in 6.2 mi Calm Calm - N/A   Partly Cloudy
5:00 AM 68.0 °F - 68.0 °F 100% 29.65 in 6.2 mi Calm Calm - N/A   Partly Cloudy
6:00 AM 67 °F - 67 °F 100% 29.69 in 31 mi Calm Calm - -   Partly Cloudy
6:00 AM 68.0 °F - 66.2 °F 94% 29.68 in 31.1 mi Calm Calm - N/A   Partly Cloudy
7:00 AM 69.8 °F - 68.0 °F 94% 29.68 in 31.1 mi Calm Calm - N/A   Partly Cloudy
8:00 AM 75.2 °F - 69.8 °F 83% 29.68 in 31.1 mi Calm Calm - N/A   Partly Cloudy
9:00 AM 82 °F - 68 °F 54% 29.70 in 31 mi Calm Calm - -  
9:00 AM 82.4 °F 85.4 °F 68.0 °F 62% 29.68 in 6.2 mi Calm Calm - N/A   Scattered Clouds
10:00 AM 84.2 °F 87.3 °F 68.0 °F 58% 29.68 in 6.2 mi SW 8.1 mph - N/A   Scattered Clouds
11:00 AM 82.4 °F 85.4 °F 68.0 °F 62% 29.68 in 6.2 mi WSW 5.8 mph - N/A   Scattered Clouds
12:00 PM 85 °F - 70 °F 52% 29.68 in 31 mi South 5.8 mph - -   Partly Cloudy
12:00 PM 86.0 °F 90.4 °F 69.8 °F 58% 29.65 in 6.2 mi South 5.8 mph - N/A   Mostly Cloudy
1:00 PM 82.4 °F 88.2 °F 73.4 °F 74% 29.65 in 6.2 mi South 11.5 mph - N/A   Mostly Cloudy
2:00 PM 84.2 °F 88.4 °F 69.8 °F 62% 29.65 in 31.1 mi SSW 11.5 mph - N/A   Scattered Clouds
3:00 PM 84 °F - 71 °F 56% 29.68 in 31 mi SSW 11.5 mph - -   Partly Cloudy
3:00 PM 84.2 °F 88.4 °F 69.8 °F 62% 29.65 in 31.1 mi SSW 11.5 mph - N/A   Scattered Clouds
4:00 PM 84.2 °F 88.4 °F 69.8 °F 62% 29.65 in 31.1 mi SSW 11.5 mph - N/A   Scattered Clouds
5:00 PM 78.8 °F - 71.6 °F 78% 29.65 in 31.1 mi Calm Calm - N/A   Scattered Clouds
6:00 PM 78 °F - 71 °F 74% 29.68 in 31 mi Calm Calm - -   Partly Cloudy
6:00 PM 77.0 °F - 71.6 °F 83% 29.65 in 31.1 mi Calm Calm - N/A   Mostly Cloudy
7:00 PM 75.2 °F - 71.6 °F 89% 29.68 in 31.1 mi Calm Calm - N/A   Mostly Cloudy
8:00 PM 73.4 °F - 71.6 °F 94% 29.71 in 31.1 mi Calm Calm - N/A   Mostly Cloudy
9:00 PM 73 °F - 72 °F 95% 29.74 in 12 mi Calm Calm - -   Partly Cloudy
9:00 PM 73.4 °F - 71.6 °F 94% 29.74 in 6.2 mi Calm Calm - N/A   Scattered Clouds
10:00 PM 73.4 °F - 71.6 °F 94% 29.74 in 6.2 mi Calm Calm - N/A   Scattered Clouds
11:00 PM 71.6 °F - 69.8 °F 94% 29.74 in 6.2 mi Calm Calm - N/A   Scattered Clouds